Tracking 22879 objects as of 22-Apr-2021
HD Live streaming from Space Station
objects crossing your sky now

LEMUR 2 DAISY-HARPER

Track LEMUR 2 DAISY-HARPER now!
10-day predictions
LEMUR 2 DAISY-HARPER is classified as:


NORAD ID: 43889
Int'l Code: 2018-111P
Perigee: 574.1 km
Apogee: 587.6 km
Inclination: 97.7 °
Period: 96.1 minutes
Semi major axis: 6951 km
RCS: Unknown
Launch date: December 27, 2018
Source: United States (US)
Launch site: VOSTOCHNY COSMODROME (VOSTO)
aabbcc
Your satellite tracking list
Your tracking list is empty




NASA's NSSDC Master Catalog

Two Line Element Set (TLE):
1 43889U 18111P   21111.77865982  .00000954  00000-0  86195-4 0  9993
2 43889  97.6970  21.9200 0009659 291.6385  68.3808 14.97790429126665
Source of the keplerian elements: AFSPC